EW8714 Weather Reports


Display with metric or nautical units.
time (UTC)temp
F
wind
direction
speed
MPH
gust
MPH
rain 1hr
in
rain 24hr
in
rain mn
in
humidity
%
barometer
mb
20260906214007 91 72 3.0 7.0 0.00 0.00 0.00 31 1015.6
20260906213508 91 321 2.0 8.0 0.00 0.00 0.00 32 1015.8
20260906213013 91 20 3.0 8.0 0.00 0.00 0.00 32 1015.9
20260906212510 91 41 2.0 6.0 0.00 0.00 0.00 32 1016.1
20260906212009 90 50 2.0 7.0 0.00 0.00 0.00 33 1016.1
20260906211508 89 47 2.0 7.0 0.00 0.00 0.00 34 1016.2
20260906211008 89 84 2.0 6.0 0.00 0.00 0.00 33 1016.3
20260906210506 89 75 3.0 7.0 0.00 0.00 0.00 34 1016.5
20260906210007 89 42 3.0 7.0 0.00 0.00 0.00 35 1016.6
20260906205506 89 71 1.0 6.0 0.00 0.00 0.00 34 1016.7
20260906205005 90 99 3.0 6.0 0.00 0.00 0.00 34 1016.7
20260906204511 91 336 1.0 4.0 0.00 0.00 0.00 32 1016.8
20260906204009 90 334 1.0 6.0 0.00 0.00 0.00 34 1016.8
20260906203509 89 360 3.0 6.0 0.00 0.00 0.00 34 1016.9
20260906203009 88 131 1.0 6.0 0.00 0.00 0.00 35 1016.9
20260906202507 87 115 2.0 6.0 0.00 0.00 0.00 35 1017.0
20260906202007 87 94 1.0 8.0 0.00 0.00 0.00 35 1017.1
20260906201508 87 91 3.0 8.0 0.00 0.00 0.00 35 1017.1
20260906201007 87 46 4.0 7.0 0.00 0.00 0.00 37 1017.2
20260906200509 88 167 2.0 5.0 0.00 0.00 0.00 36 1017.2
20260906200010 86 78 2.0 7.0 0.00 0.00 0.00 36 1017.3
20260906195509 86 64 3.0 7.0 0.00 0.00 0.00 38 1017.3
20260906195010 86 98 4.0 8.0 0.00 0.00 0.00 40 1017.3
20260906194516 85 242 3.0 9.0 0.00 0.00 0.00 39 1017.3
20260906194008 85 94 5.0 9.0 0.00 0.00 0.00 40 1017.4
20260906193508 87 95 3.0 9.0 0.00 0.00 0.00 37 1017.5
20260906193013 88 17 2.0 7.0 0.00 0.00 0.00 37 1017.5
20260906192511 86 52 3.0 6.0 0.00 0.00 0.00 38 1017.6
20260906192010 86 49 1.0 6.0 0.00 0.00 0.00 33 1017.7
20260906191527 85 5 3.0 6.0 0.00 0.00 0.00 37 1017.9
20260906191027 85 78 3.0 6.0 0.00 0.00 0.00 38 1018.0
20260906190524 86 85 3.0 6.0 0.00 0.00 0.00 39 1018.0
20260906190028 84 79 1.0 5.0 0.00 0.00 0.00 40 1018.1
20260906185524 85 12 2.0 5.0 0.00 0.00 0.00 40 1018.3
20260906185028 85 293 2.0 6.0 0.00 0.00 0.00 40 1018.3
20260906184520 84 359 2.0 6.0 0.00 0.00 0.00 44 1018.5
20260906184008 84 359 2.0 7.0 0.00 0.00 0.00 43 1018.5
20260906183512 84 46 2.0 7.0 0.00 0.00 0.00 44 1018.6
20260906183006 83 52 3.0 7.0 0.00 0.00 0.00 45 1018.7
20260906182505 82 66 2.0 7.0 0.00 0.00 0.00 49 1018.7
20260906182005 82 77 3.0 6.0 0.00 0.00 0.00 50 1018.9
20260906181510 82 49 2.0 6.0 0.00 0.00 0.00 48 1018.9
20260906181012 83 326 1.0 4.0 0.00 0.00 0.00 45 1019.1
20260906180508 83 320 1.0 4.0 0.00 0.00 0.00 48 1019.2
20260906180028 83 359 2.0 4.0 0.00 0.00 0.00 47 1019.3
20260906175530 83 340 0.0 5.0 0.00 0.00 0.00 49 1019.3
20260906175028 82 338 1.0 5.0 0.00 0.00 0.00 51 1019.4
20260906174524 81 347 1.0 4.0 0.00 0.00 0.00 52 1019.6
20260906174025 80 347 2.0 4.0 0.00 0.00 0.00 52 1019.7
20260906173524 81 345 2.0 4.0 0.00 0.00 0.00 51 1019.8
20260906173028 81 306 2.0 4.0 0.00 0.00 0.00 51 1019.8
20260906172529 81 304 1.0 4.0 0.00 0.00 0.00 53 1019.9
20260906172025 80 306 1.0 4.0 0.00 0.00 0.00 54 1020.1
20260906171524 79 299 1.0 4.0 0.00 0.00 0.00 54 1020.2
20260906171025 79 343 1.0 4.0 0.00 0.00 0.00 55 1020.3
20260906170524 79 345 0.0 3.0 0.00 0.00 0.00 57 1020.5
20260906170002 77 344 1.0 4.0 0.00 0.00 0.00 59 1020.4
20260906165503 77 342 2.0 4.0 0.00 0.00 0.00 58 1020.5
20260906165001 77 352 1.0 5.0 0.00 0.00 0.00 60 1020.6
20260906164524 76 263 2.0 5.0 0.00 0.00 0.00 60 1020.6
20260906164027 76 311 2.0 5.0 0.00 0.00 0.00 59 1020.6
20260906163523 76 359 1.0 5.0 0.00 0.00 0.00 61 1020.6
20260906163023 76 298 2.0 5.0 0.00 0.00 0.00 61 1020.6
20260906162522 76 294 2.0 5.0 0.00 0.00 0.00 63 1020.6
20260906162022 75 300 2.0 5.0 0.00 0.00 0.00 62 1020.5
20260906161508 75 319 1.0 5.0 0.00 0.00 0.00 63 1020.5
20260906161006 75 307 2.0 5.0 0.00 0.00 0.00 64 1020.6
20260906160505 74 1 2.0 5.0 0.00 0.00 0.00 65 1020.6
20260906160023 74 11 2.0 6.0 0.00 0.00 0.00 65 1020.6
20260906155525 73 341 2.0 6.0 0.00 0.00 0.00 66 1020.6
20260906155021 73 353 3.0 6.0 0.00 0.00 0.00 67 1020.5
20260906154522 72 319 1.0 6.0 0.00 0.00 0.00 69 1020.5
20260906154021 71 300 3.0 7.0 0.00 0.00 0.00 69 1020.6
20260906153521 71 289 4.0 7.0 0.00 0.00 0.00 69 1020.7
20260906153005 71 307 3.0 5.0 0.00 0.00 0.00 70 1020.7
20260906152504 71 333 2.0 7.0 0.00 0.00 0.00 71 1020.8
20260906152004 70 352 3.0 7.0 0.00 0.00 0.00 71 1020.8
20260906151523 70 333 2.0 6.0 0.00 0.00 0.00 72 1020.8
20260906151027 70 318 3.0 6.0 0.00 0.00 0.00 72 1020.7
20260906150526 69 312 2.0 6.0 0.00 0.00 0.00 73 1020.7
20260906150013 69 303 3.0 8.0 0.00 0.00 0.00 73 1020.8
20260906145510 68 295 3.0 8.0 0.00 0.00 0.00 71 1020.8
20260906145010 69 318 3.0 7.0 0.00 0.00 0.00 71 1020.8
20260906144514 69 333 3.0 7.0 0.00 0.00 0.00 71 1020.7
20260906144005 68 308 3.0 6.0 0.00 0.00 0.00 72 1020.7
20260906143508 68 299 2.0 8.0 0.00 0.00 0.00 74 1020.8
20260906143011 67 312 2.0 8.0 0.00 0.00 0.00 75 1020.7
20260906142507 67 317 2.0 7.0 0.00 0.00 0.00 76 1020.7
20260906142005 67 297 3.0 7.0 0.00 0.00 0.00 76 1020.8
20260906141510 66 293 3.0 7.0 0.00 0.00 0.00 76 1020.8
20260906141009 66 291 4.0 7.0 0.00 0.00 0.00 76 1020.8
20260906140509 66 286 3.0 6.0 0.00 0.00 0.00 76 1020.8
20260906140023 65 293 4.0 6.0 0.00 0.00 0.00 76 1020.7
20260906135506 65 300 3.0 8.0 0.00 0.00 0.00 77 1020.6
20260906135005 64 300 3.0 8.0 0.00 0.00 0.00 77 1020.6
20260906134509 64 284 4.0 7.0 0.00 0.00 0.00 78 1020.6
20260906134006 64 290 5.0 7.0 0.00 0.00 0.00 79 1020.5
20260906133505 64 299 2.0 8.0 0.00 0.00 0.00 80 1020.5
20260906133011 63 294 3.0 8.0 0.00 0.00 0.00 81 1020.4
20260906132509 63 296 4.0 7.0 0.00 0.00 0.00 82 1020.4
20260906132009 63 272 3.0 7.0 0.00 0.00 0.00 84 1020.3
20260906131508 62 266 4.0 7.0 0.00 0.00 0.00 86 1020.3
20260906131008 62 271 3.0 5.0 0.00 0.00 0.00 87 1020.2
20260906130508 61 1 2.0 4.0 0.00 0.00 0.00 88 1020.2
20260906130013 60 2 2.0 4.0 0.00 0.00 0.00 89 1020.1
20260906125512 60 3 2.0 4.0 0.00 0.00 0.00 89 1020.2
20260906125012 60 4 1.0 2.0 0.00 0.00 0.00 88 1020.2
20260906124511 60 5 0.0 2.0 0.00 0.00 0.00 88 1020.2
20260906124011 59 4 0.0 2.0 0.00 0.00 0.00 88 1020.2
20260906123510 59 5 0.0 0.0 0.00 0.00 0.00 88 1020.1
20260906123014 60 5 0.0 0.0 0.00 0.00 0.00 88 1020.1
20260906122510 59 5 0.0 0.0 0.00 0.00 0.00 88 1020.2
20260906122014 59 5 0.0 0.0 0.00 0.00 0.00 87 1020.2
20260906121510 59 5 0.0 0.0 0.00 0.00 0.00 87 1020.3
20260906121010 60 5 0.0 0.0 0.00 0.00 0.00 87 1020.1
20260906120512 60 5 0.0 0.0 0.00 0.00 0.00 88 1020.0
20260906120012 60 5 0.0 0.0 0.00 0.00 0.00 88 1020.0
20260906115512 59 5 0.0 0.0 0.00 0.00 0.00 87 1020.1
20260906115014 59 5 0.0 0.0 0.00 0.00 0.00 87 1020.2
20260906114523 59 5 0.0 0.0 0.00 0.00 0.00 86 1020.3
20260906114015 60 5 0.0 0.0 0.00 0.00 0.00 86 1020.1
20260906113514 60 5 0.0 0.0 0.00 0.00 0.00 85 1020.3
20260906113018 61 5 0.0 0.0 0.00 0.00 0.00 85 1020.3
20260906112516 61 5 0.0 0.0 0.00 0.00 0.00 85 1020.1
20260906112015 61 5 0.0 0.0 0.00 0.00 0.00 85 1020.0
20260906111513 61 5 0.0 0.0 0.00 0.00 0.00 85 1020.0
20260906111013 62 5 0.0 2.0 0.00 0.00 0.00 85 1020.0
20260906110512 62 5 0.0 2.0 0.00 0.00 0.00 85 1019.9
20260906110016 62 5 0.0 2.0 0.00 0.00 0.00 84 1019.7
20260906105517 62 5 0.0 2.0 0.00 0.00 0.00 84 1019.7
20260906105015 62 5 0.0 2.0 0.00 0.00 0.00 84 1019.9
20260906104518 62 6 0.0 2.0 0.00 0.00 0.00 84 1019.7
20260906104016 62 6 0.0 2.0 0.00 0.00 0.00 83 1019.8
20260906103515 63 6 1.0 4.0 0.00 0.00 0.00 83 1019.7
20260906103015 63 6 1.0 4.0 0.00 0.00 0.00 82 1019.7
20260906102514 63 5 0.0 2.0 0.00 0.00 0.00 81 1019.7
20260906102013 63 5 0.0 2.0 0.00 0.00 0.00 81 1019.7
20260906101517 63 5 0.0 2.0 0.00 0.00 0.00 80 1019.7
20260906101016 64 5 0.0 4.0 0.00 0.00 0.00 79 1019.7
20260906100519 64 5 1.0 4.0 0.00 0.00 0.00 79 1019.7
20260906100016 64 5 0.0 2.0 0.00 0.00 0.00 77 1019.8
20260906095514 64 5 0.0 3.0 0.00 0.00 0.00 76 1019.8
20260906095014 64 5 0.0 3.0 0.00 0.00 0.00 76 1019.7
20260906094518 64 5 0.0 3.0 0.00 0.00 0.00 75 1019.7
20260906094018 64 5 0.0 3.0 0.00 0.00 0.00 74 1019.6
20260906093518 65 5 0.0 3.0 0.00 0.00 0.00 73 1019.7
20260906093039 65 5 0.0 2.0 0.00 0.00 0.00 72 1019.7
20260906092516 65 5 0.0 2.0 0.00 0.00 0.00 72 1019.8
20260906092016 65 5 0.0 2.0 0.00 0.00 0.00 71 1019.9
20260906091516 66 5 0.0 3.0 0.00 0.00 0.00 71 1019.9
20260906091014 66 5 0.0 3.0 0.00 0.00 0.00 70 1019.7
20260906090513 66 4 0.0 2.0 0.00 0.00 0.00 69 1019.6
20260906090021 66 4 0.0 3.0 0.00 0.00 0.00 69 1019.4
20260906085518 67 4 1.0 4.0 0.00 0.00 0.00 69 1019.3
20260906085017 67 3 1.0 5.0 0.00 0.00 0.00 67 1019.3
20260906084519 67 3 2.0 5.0 0.00 0.00 0.00 67 1019.2
20260906084014 67 4 1.0 4.0 0.00 0.00 0.00 66 1019.0
20260906083514 67 4 0.0 4.0 0.00 0.00 0.00 65 1019.1
20260906083032 67 4 0.0 4.0 0.00 0.00 0.00 65 1018.9
20260906082519 68 4 0.0 5.0 0.00 0.00 0.00 65 1019.0
20260906082018 68 5 0.0 6.0 0.00 0.00 0.00 64 1019.0
20260906081520 68 5 1.0 6.0 0.00 0.00 0.00 63 1018.9
20260906081020 68 6 1.0 6.0 0.00 0.00 0.00 60 1019.0
20260906080518 69 359 2.0 6.0 0.00 0.00 0.00 58 1019.1
20260906080017 69 5 2.0 7.0 0.00 0.00 0.00 54 1019.2
20260906075516 69 1 3.0 7.0 0.00 0.00 0.00 49 1019.0
20260906075016 69 359 2.0 6.0 0.00 0.00 0.00 49 1019.1
20260906074533 69 6 2.0 5.0 0.00 0.00 0.00 49 1019.2
20260906074017 69 11 2.0 5.0 0.00 0.00 0.00 50 1019.1
20260906073518 68 345 0.0 4.0 0.00 0.00 0.00 52 1019.1
20260906073024 68 292 0.0 0.0 0.00 0.00 0.00 52 1019.1
20260906072518 69 292 0.0 0.0 0.00 0.00 0.00 53 1019.0
20260906072017 69 292 0.0 2.0 0.00 0.00 0.00 52 1018.9
20260906071517 69 291 0.0 3.0 0.00 0.00 0.00 51 1018.9
20260906071016 70 291 0.0 4.0 0.00 0.00 0.00 50 1019.0
20260906070516 71 291 2.0 4.0 0.00 0.00 0.00 49 1018.9
20260906070022 71 291 1.0 4.0 0.00 0.00 0.00 49 1018.7
20260906065526 71 276 1.0 4.0 0.00 0.00 0.00 49 1018.7
20260906065026 71 270 1.0 4.0 0.00 0.00 0.00 50 1018.8
20260906064520 70 270 1.0 4.0 0.00 0.00 0.00 51 1018.9
20260906064019 70 266 0.0 3.0 0.00 0.00 0.00 51 1018.9
20260906063523 69 266 1.0 3.0 0.00 0.00 0.00 50 1018.9
20260906063022 69 266 1.0 3.0 0.00 0.00 0.00 51 1018.9
20260906062521 68 266 0.0 2.0 0.00 0.00 0.00 53 1019.0
20260906062019 70 266 1.0 2.0 0.00 0.00 0.00 53 1019.0
20260906061521 72 266 0.0 2.0 0.00 0.00 0.00 49 1019.0
20260906061018 73 266 0.0 1.0 0.00 0.00 0.00 45 1018.9
20260906060518 73 266 0.0 1.0 0.00 0.00 0.00 44 1018.9
20260906060016 74 266 0.0 0.0 0.00 0.00 0.00 44 1018.9
20260906055516 74 266 0.0 3.0 0.00 0.00 0.00 43 1019.0
20260906055016 74 266 0.0 4.0 0.00 0.00 0.00 42 1019.0
20260906054520 74 266 1.0 4.0 0.00 0.00 0.00 43 1019.0
20260906054020 74 266 2.0 4.0 0.00 0.00 0.00 43 1019.1
20260906053519 75 266 1.0 7.0 0.00 0.00 0.00 42 1019.3
20260906053020 74 265 2.0 7.0 0.00 0.00 0.00 42 1019.4
20260906052520 74 250 4.0 7.0 0.00 0.00 0.00 43 1019.6
20260906052020 73 242 4.0 5.0 0.00 0.00 0.00 44 1019.7
20260906051525 73 238 3.0 5.0 0.00 0.00 0.00 47 1019.6
20260906051023 73 239 3.0 8.0 0.00 0.00 0.00 45 1019.6
20260906050522 73 240 5.0 8.0 0.00 0.00 0.00 44 1019.6
20260906050023 72 219 5.0 7.0 0.00 0.00 0.00 44 1019.8
20260906045521 71 198 5.0 7.0 0.00 0.00 0.00 46 1019.6
20260906045023 71 4 1.0 2.0 0.00 0.00 0.00 52 1019.2
20260906044522 72 4 0.0 1.0 0.00 0.00 0.00 47 1019.0
20260906044020 72 4 0.0 2.0 0.00 0.00 0.00 45 1018.9
20260906043522 72 4 0.0 2.0 0.00 0.00 0.00 44 1018.9
20260906043024 72 4 0.0 0.0 0.00 0.00 0.00 44 1018.9
20260906042524 73 4 0.0 0.0 0.00 0.00 0.00 43 1018.7
20260906042024 73 4 0.0 1.0 0.00 0.00 0.00 41 1018.6
20260906041533 74 4 0.0 2.0 0.00 0.00 0.00 41 1018.5
20260906041023 74 4 0.0 2.0 0.00 0.00 0.00 40 1018.5
20260906040522 74 4 0.0 3.0 0.00 0.00 0.00 40 1018.5
20260906040005 74 4 1.0 3.0 0.00 0.00 0.00 40 1018.5
20260906035504 74 2 0.0 2.0 0.00 0.00 0.00 40 1018.4
20260906035005 75 2 0.0 3.0 0.00 0.00 0.00 39 1018.4
20260906034524 75 2 0.0 3.0 0.00 0.00 0.00 39 1018.3
20260906034025 75 2 0.0 4.0 0.00 0.00 0.00 39 1018.3
20260906033523 75 2 1.0 4.0 0.00 0.00 0.00 38 1018.3
20260906033025 75 4 0.0 2.0 0.00 0.00 0.00 38 1018.2
20260906032525 76 4 0.0 3.0 0.00 0.00 0.00 38 1018.1
20260906032025 76 4 0.0 3.0 0.00 0.00 0.00 37 1018.0
20260906031525 76 4 1.0 4.0 0.00 0.00 0.00 37 1017.9
20260906031025 76 4 1.0 5.0 0.00 0.00 0.00 36 1017.9
20260906030527 76 3 2.0 5.0 0.00 0.00 0.00 36 1017.9
20260906030032 77 315 0.0 3.0 0.00 0.00 0.00 35 1017.6
20260906025524 77 314 1.0 3.0 0.00 0.00 0.00 34 1017.5
20260906025024 78 314 0.0 4.0 0.00 0.00 0.00 34 1017.5
20260906024500 78 314 1.0 4.0 0.00 0.00 0.00 34 1017.4
20260906024100 78 308 1.0 7.0 0.00 0.00 0.00 34 1017.5
20260906023601 79 303 2.0 7.0 0.00 0.00 0.00 33 1017.5
20260906023026 79 285 4.0 8.0 0.00 0.00 0.00 33 1017.3
20260906022524 79 288 4.0 8.0 0.00 0.00 0.00 32 1017.3
20260906022025 79 288 6.0 8.0 0.00 0.00 0.00 32 1017.3
20260906021524 80 289 3.0 8.0 0.00 0.00 0.00 31 1017.3
20260906021023 80 291 4.0 7.0 0.00 0.00 0.00 31 1017.3
20260906020523 80 297 3.0 7.0 0.00 0.00 0.00 31 1017.2
20260906020005 81 290 4.0 7.0 0.00 0.00 0.00 31 1017.1
20260906015505 81 325 3.0 7.0 0.00 0.00 0.00 30 1017.1
20260906015005 81 326 4.0 0.0 0.00 0.00 0.00 29 1017.0
20260906014515 82 306 3.0 8.0 0.00 0.00 0.00 29 1016.9
20260906014004 82 309 4.0 9.0 0.00 0.00 0.00 29 1016.8
20260906013504 83 302 4.0 10.0 0.00 0.00 0.00 28 1016.8
20260906013026 83 307 5.0 10.0 0.00 0.00 0.00 27 1016.8
20260906012627 83 319 4.0 8.0 0.00 0.00 0.00 27 1016.7
20260906012024 84 299 4.0 7.0 0.00 0.00 0.00 27 1016.6
20260906011507 84 300 3.0 7.0 0.00 0.00 0.00 26 1016.6
20260906011008 84 288 3.0 8.0 0.00 0.00 0.00 26 1016.6
20260906010506 85 302 3.0 8.0 0.00 0.00 0.00 26 1016.6
20260906010015 85 304 3.0 10.0 0.00 0.00 0.00 26 1016.6
20260906005504 86 308 5.0 10.0 0.00 0.00 0.00 25 1016.6
20260906005007 86 283 4.0 10.0 0.00 0.00 0.00 25 1016.6
20260906004507 87 297 4.0 10.0 0.00 0.00 0.00 23 1016.6
20260906004006 88 283 5.0 9.0 0.00 0.00 0.00 22 1016.6
20260906003506 89 313 3.0 7.0 0.00 0.00 0.00 21 1016.6
20260906003010 90 343 2.0 5.0 0.00 0.00 0.00 21 1016.6
20260906002509 90 346 2.0 6.0 0.00 0.00 0.00 20 1016.5
20260906002009 92 345 3.0 6.0 0.00 0.00 0.00 20 1016.4
20260906001538 92 354 3.0 7.0 0.00 0.00 0.00 19 1016.5
20260906001029 92 355 2.0 7.0 0.00 0.00 0.00 19 1016.4
20260906000524 92 299 1.0 6.0 0.00 0.00 0.00 19 1016.4
20260906000007 93 282 1.0 6.0 0.00 0.00 0.00 19 1016.3
20260905235507 92 264 2.0 5.0 0.00 0.00 0.00 19 1016.3
20260905235011 92 265 3.0 5.0 0.00 0.00 0.00 19 1016.3
20260905234507 92 255 2.0 5.0 0.00 0.00 0.00 19 1016.3
20260905234010 93 293 0.0 5.0 0.00 0.00 0.00 18 1016.3
20260905233510 94 286 2.0 5.0 0.00 0.00 0.00 19 1016.2
20260905233007 95 266 2.0 4.0 0.00 0.00 0.00 18 1016.3
20260905232506 95 342 1.0 5.0 0.00 0.00 0.00 18 1016.3
20260905232006 95 338 1.0 5.0 0.00 0.00 0.00 19 1016.3
20260905231509 95 301 1.0 3.0 0.00 0.00 0.00 17 1016.3
20260905231011 95 298 1.0 4.0 0.00 0.00 0.00 18 1016.2
20260905230509 95 293 1.0 4.0 0.00 0.00 0.00 18 1016.2
20260905230007 95 293 1.0 5.0 0.00 0.00 0.00 17 1016.1
20260905225507 95 295 1.0 5.0 0.00 0.00 0.00 17 1016.1
20260905225007 95 298 2.0 5.0 0.00 0.00 0.00 17 1016.1
20260905224512 95 300 0.0 5.0 0.00 0.00 0.00 17 1016.1
20260905224014 94 300 0.0 5.0 0.00 0.00 0.00 18 1016.1
20260905223510 94 52 2.0 5.0 0.00 0.00 0.00 18 1016.2
20260905223019 94 58 1.0 4.0 0.00 0.00 0.00 18 1016.2
20260905222510 93 60 1.0 4.0 0.00 0.00 0.00 18 1016.2
20260905222009 94 60 2.0 6.0 0.00 0.00 0.00 19 1016.2
20260905221510 94 60 2.0 5.0 0.00 0.00 0.00 18 1016.3
20260905221011 94 60 2.0 4.0 0.00 0.00 0.00 17 1016.3
20260905220508 94 56 1.0 5.0 0.00 0.00 0.00 18 1016.3
20260905220011 93 58 3.0 9.0 0.00 0.00 0.00 17 1016.4
20260905215514 94 64 5.0 9.0 0.00 0.00 0.00 17 1016.5
20260905215015 94 46 3.0 22.0 0.00 0.00 0.00 18 1016.5
20260905214509 94 34 4.0 22.0 0.00 0.00 0.00 18 1016.6